Theta_e
288 288 288 288 289 290 292 292 293 293 293 293 294 297 298 298 297 296 296 296 296 296 296 295 296 296 297 297 296 296 295 295 296 297 297 297 297 297 297 296 294 293 292
287 287 287 287 287 287 287 288 288 289 289 289 290 290 290 293 297 297 295 295 295 295 295 295 295 294 295 295 296 296 296 295 295 295 296 296 296 297 296 296 295 294 293
287 287 287 286 286 286 286 286 286 286 286 286 287 288 289 288 288 290 297 296 295 294 293 294 294 293 294 294 294 295 295 295 295 294 295 296 296 296 296 295 294 292 292
287 287 287 287 286 286 286 286 286 286 286 286 286 286 286 287 287 287 287 288 294 297 294 293 293 293 293 293 293 293 293 294 295 294 293 294 295 295 295 295 294 292 292
287 287 287 287 286 286 286 286 286 286 286 286 286 286 286 285 286 286 286 286 286 287 292 296 293 292 292 292 292 292 292 292 292 293 293 292 293 293 293 294 294 293 292
288 288 287 287 286 286 286 286 286 286 286 286 286 286 286 286 285 285 285 285 285 285 286 287 292 296 295 292 291 291 291 291 291 291 292 293 292 292 293 293 293 292 290
286 287 287 286 286 285 285 285 285 285 285 285 285 285 285 285 286 286 285 285 285 285 285 285 286 287 293 295 294 290 290 290 290 291 291 292 292 293 292 292 292 292 293
285 284 283 282 282 282 283 283 284 283 283 283 284 284 284 284 285 285 285 285 285 285 285 285 285 285 285 289 292 292 292 289 289 289 289 290 291 290 291 293 293 293 291
282 281 280 280 279 279 279 279 279 279 280 281 282 282 282 283 283 283 283 283 284 285 285 285 285 285 285 285 288 290 291 292 292 288 289 289 289 289 290 289 289 289 288
280 279 278 277 276 276 276 276 276 277 277 277 277 278 279 280 282 281 280 279 280 282 284 285 285 285 285 284 285 288 288 291 290 289 287 288 288 288 289 289 288 289 288
278 278 278 277 276 274 273 272 271 271 272 272 273 273 273 274 276 278 277 277 279 280 282 283 284 284 285 284 284 287 290 290 289 287 287 287 288 288 288 288 288 288 288
277 277 276 276 274 273 271 270 268 267 267 268 269 269 270 270 271 273 275 276 278 280 281 282 283 283 284 284 286 287 288 288 287 286 286 286 286 287 287 287 286 286 287
276 276 275 273 271 269 268 267 266 266 265 265 266 267 267 268 269 270 272 274 276 278 280 282 283 284 284 285 285 286 288 287 287 286 285 286 286 286 285 285 285 285 285
275 274 272 269 268 267 266 266 265 265 264 264 264 265 266 266 267 267 268 270 273 276 279 281 283 283 283 283 283 285 287 287 287 286 285 285 285 284 284 284 283 284 283
273 272 270 267 266 265 265 265 264 265 265 266 267 268 268 268 269 269 270 271 271 273 275 278 281 280 281 282 283 285 286 286 286 286 285 285 284 283 283 282 282 281 281
271 270 267 265 265 265 264 264 266 265 266 267 268 269 269 269 270 271 271 272 272 273 274 275 277 280 281 282 282 284 285 286 286 286 285 284 284 282 282 281 281 281 280
270 267 266 266 265 264 264 264 264 266 266 267 267 268 268 269 270 270 271 272 272 274 274 276 276 278 280 282 282 283 284 285 285 285 285 284 283 282 282 280 281 280 279
269 268 267 266 266 265 264 264 265 265 265 267 270 268 268 269 270 271 271 272 272 272 273 275 276 278 279 282 282 282 283 283 283 284 284 283 283 283 281 280 280 279 278
268 268 267 267 266 265 265 265 265 266 266 267 268 270 272 272 270 271 272 273 273 273 273 274 276 278 279 283 282 282 282 283 283 283 283 283 282 281 280 279 279 278 277
270 269 268 267 267 267 266 265 265 266 266 268 268 268 270 272 273 273 275 276 276 277 277 278 279 281 283 283 283 282 282 282 283 282 282 281 280 279 279 278 278 277 276
269 270 270 268 268 268 267 266 266 266 266 266 267 269 269 270 272 273 274 275 276 278 279 279 280 281 283 282 282 282 282 282 281 280 280 279 279 278 278 278 277 275 276
269 270 270 269 269 268 268 267 266 265 265 266 267 269 268 270 270 272 274 275 276 278 280 281 282 282 282 282 282 282 282 281 280 279 278 278 278 278 277 276 275 275 275
270 270 270 270 269 269 269 268 267 266 266 266 267 268 269 270 270 271 272 274 276 277 278 279 280 280 280 280 280 281 281 279 279 278 277 277 277 276 275 275 275 275 275
269 269 270 270 269 269 269 268 268 267 267 267 267 268 269 269 270 270 271 272 273 274 275 275 276 276 277 277 278 277 277 277 276 276 276 276 275 275 275 274 274 274 274
267 268 269 269 269 269 269 269 268 269 268 268 268 269 269 270 270 270 271 271 272 273 273 274 274 275 275 275 275 275 275 274 274 274 274 274 275 274 274 274 273 273 272
268 268 267 267 268 268 268 268 268 268 269 269 269 269 269 269 269 270 270 270 271 271 272 272 272 273 273 273 273 273 273 273 273 273 274 274 274 273 273 272 272 271 271
Wind_Speed
19 17 16 16 15 14 15 17 20 22 24 24 21 19 19 17 18 21 24 25 28 32 36 41 45 46 50 53 54 54 52 50 49 43 42 39 37 36 36 37 36 37 34
21 21 22 21 21 21 21 19 19 19 21 25 26 26 25 22 20 20 22 23 27 31 33 36 41 42 47 49 52 55 54 53 53 48 45 45 43 39 38 38 40 40 38
23 25 27 27 26 27 26 25 24 24 23 24 25 27 29 30 28 25 25 25 25 29 33 35 38 39 44 46 50 54 55 54 53 53 48 48 47 44 42 41 42 42 41
25 28 29 30 31 32 32 32 33 33 34 33 32 31 30 31 30 29 29 28 28 31 32 34 36 38 41 44 46 50 52 55 53 54 56 54 53 50 46 45 45 46 45
28 29 31 33 34 35 36 38 40 42 42 41 40 39 36 33 33 32 31 31 31 32 32 35 37 36 38 41 45 48 51 53 54 54 57 56 57 55 55 52 49 46 47
31 34 34 34 36 39 41 42 43 44 44 46 47 46 46 44 39 35 35 36 35 34 35 34 35 38 38 38 41 47 49 52 55 57 55 61 63 63 60 56 50 50 51
33 35 37 38 40 40 40 41 43 45 46 48 49 50 50 51 49 46 41 39 40 40 40 37 36 37 38 39 40 42 48 54 55 54 56 62 60 65 63 59 56 54 54
36 38 39 39 41 42 43 46 49 51 52 54 55 56 56 55 54 53 52 50 47 45 43 42 41 39 39 39 39 43 44 48 56 57 59 58 55 55 59 61 60 56 54
38 39 39 39 41 44 48 51 54 54 58 60 61 63 64 64 61 60 57 53 56 55 51 47 44 44 41 39 41 43 43 47 48 51 59 56 54 55 55 49 53 56 55
40 43 45 47 48 46 47 48 47 48 53 56 62 67 68 69 68 66 60 48 50 58 60 55 50 47 45 39 38 43 46 51 47 46 49 55 55 53 57 56 54 58 57
46 49 51 51 51 51 52 50 50 50 52 53 56 62 64 66 70 68 57 46 47 50 52 57 57 53 47 44 39 40 46 42 46 42 45 49 49 59 57 59 56 55 56
49 50 51 52 52 53 52 52 49 44 42 45 47 51 51 50 50 50 47 45 43 45 50 52 53 52 48 43 36 40 41 43 42 46 45 48 50 54 60 61 58 54 51
49 50 52 52 51 47 45 43 43 40 38 39 39 42 45 43 44 43 42 41 42 43 48 49 46 41 38 37 37 39 41 42 45 47 47 50 52 49 43 49 55 53 53
48 49 49 49 45 41 39 40 40 40 40 40 40 43 46 47 45 43 43 40 35 31 35 44 44 42 42 42 41 41 41 45 49 50 48 46 45 45 47 52 49 54 50
45 46 46 43 41 42 40 39 37 38 38 41 44 46 47 47 44 43 42 43 43 40 39 35 36 37 38 37 38 40 43 43 49 50 46 44 45 46 46 49 47 45 46
43 43 41 42 41 40 41 42 36 34 35 36 39 41 47 47 46 44 42 42 41 40 43 48 42 34 37 33 32 36 42 44 47 46 46 45 46 45 48 47 49 47 45
40 40 40 40 40 39 40 42 44 45 38 37 37 37 38 41 41 40 39 39 37 35 42 43 43 38 35 33 30 33 40 43 43 43 46 44 46 47 49 50 49 49 45
36 37 37 38 38 38 40 42 43 45 47 48 40 38 37 36 36 34 33 33 36 35 37 36 39 35 36 34 32 32 35 40 41 43 41 45 48 50 50 50 52 48 43
35 36 37 36 36 36 37 38 39 41 43 45 48 45 39 37 31 30 31 31 32 35 34 35 34 36 37 34 31 31 32 37 40 42 43 47 50 51 49 49 47 43 44
34 36 35 34 33 33 34 37 39 38 39 38 38 38 37 38 39 36 32 29 27 26 25 26 27 24 30 32 28 30 33 36 38 41 43 46 47 47 46 44 42 41 41
33 33 31 31 31 31 32 32 33 34 35 35 34 33 29 29 28 27 27 24 22 21 21 20 23 20 21 20 24 31 32 34 37 39 41 41 42 41 39 37 36 38 41
28 28 28 28 28 29 29 29 30 30 30 30 31 29 25 23 21 19 18 17 15 11 3 12 12 9 13 20 26 29 29 32 34 36 37 37 36 34 34 34 35 34 31
24 26 25 25 25 26 27 28 28 28 27 27 28 28 27 25 22 20 18 16 14 12 8 2 4 9 14 18 21 22 23 26 28 31 31 31 31 30 30 31 31 31 31
21 23 24 24 24 24 24 26 28 28 28 29 29 29 28 27 25 22 19 17 15 13 12 9 6 2 2 4 5 6 9 12 16 22 23 25 26 28 29 28 29 29 27
18 20 22 23 24 24 24 24 26 27 29 29 29 30 30 30 30 28 26 23 20 17 15 13 11 9 7 5 3 4 6 7 10 14 16 21 24 26 27 26 25 23 21
14 16 18 20 21 22 22 23 24 25 26 26 27 27 27 28 28 28 27 26 26 25 24 23 21 18 16 16 14 12 11 9 11 13 16 19 21 22 21 21 20 18 16
Wind_Direction
10 8 8 8 7 2 6 352 344 341 339 339 336 330 325 314 296 287 282 275 267 266 266 265 264 261 255 252 252 251 249 246 246 250 254 252 248 247 245 241 236 237 232
353 351 351 354 353 356 358 350 339 332 330 330 331 331 331 322 311 303 288 283 277 272 268 267 267 265 261 258 254 253 250 247 245 244 246 247 245 245 245 243 237 237 233
343 341 341 342 343 342 342 339 335 332 331 327 322 319 319 321 322 318 303 294 280 274 273 269 265 265 265 260 256 254 254 251 247 243 241 245 247 244 240 237 236 234 233
333 331 331 330 330 330 328 324 322 322 322 322 322 319 315 312 313 314 312 307 297 287 277 271 269 263 261 263 259 255 254 253 248 244 240 240 244 243 238 234 232 232 231
332 326 322 323 322 320 317 315 314 314 314 313 311 310 309 307 306 306 305 306 305 300 291 284 274 267 263 260 260 259 254 250 250 244 240 237 236 233 232 234 233 235 234
324 324 320 316 314 314 312 310 308 307 305 305 304 304 302 301 300 301 302 302 300 296 294 291 287 281 268 261 258 256 255 253 248 243 239 239 239 238 237 236 233 229 231
310 314 314 313 311 309 307 304 303 303 302 300 300 298 297 296 296 295 293 292 293 293 294 294 291 286 283 276 264 256 252 251 252 248 242 243 240 241 239 236 234 235 237
314 314 314 312 310 308 306 302 300 299 297 295 293 292 292 290 291 292 292 290 286 286 288 290 291 290 286 283 278 267 256 250 247 245 246 249 246 249 248 246 246 243 237
314 313 311 306 302 300 299 298 298 296 294 291 289 288 288 286 284 284 285 285 285 284 282 283 285 288 288 285 280 275 269 263 252 245 246 245 246 245 248 240 235 231 229
312 309 307 304 301 297 294 292 289 285 286 287 288 288 287 286 282 282 282 279 278 279 280 279 279 280 283 283 274 269 267 269 263 255 242 240 238 240 242 244 241 236 230
312 310 308 307 306 303 301 298 294 288 283 282 281 282 284 286 285 283 283 278 272 270 271 275 276 277 278 280 276 262 265 272 266 254 251 247 240 237 236 238 234 234 233
313 311 311 310 310 309 308 306 305 300 291 286 285 284 284 285 285 285 283 279 274 269 267 267 270 272 275 275 265 259 259 256 254 248 241 241 236 233 234 235 231 230 233
313 314 315 315 315 315 314 313 312 310 301 293 289 288 288 288 287 288 285 279 274 268 263 263 263 264 266 265 259 254 252 248 242 240 239 239 237 234 225 222 224 224 226
316 318 320 320 319 318 317 315 310 305 300 295 293 291 292 292 291 292 290 283 272 276 272 260 257 257 260 263 261 254 249 245 239 241 238 238 232 225 222 223 218 221 218
319 322 323 321 322 319 317 314 307 302 299 298 295 293 293 292 291 292 289 286 283 282 281 279 267 261 258 257 253 249 249 244 238 239 233 232 228 223 218 218 218 212 210
324 323 326 326 324 321 317 314 316 301 299 296 294 292 292 290 291 290 287 283 278 272 270 271 272 267 255 262 257 253 245 243 238 237 231 229 223 216 215 212 214 216 205
323 328 330 329 326 322 319 315 309 319 315 306 302 299 296 295 295 293 289 285 279 271 262 263 262 262 262 259 262 254 245 244 243 236 229 222 214 215 214 210 213 215 212
331 333 334 332 328 327 323 317 312 309 309 316 329 316 306 303 301 297 294 289 280 269 264 263 261 259 257 251 260 258 252 244 239 233 226 218 217 220 209 208 212 212 211
339 339 337 333 331 327 325 320 316 311 310 310 317 326 332 327 315 310 305 295 281 269 266 258 250 259 251 237 256 255 248 235 235 231 227 219 213 210 205 208 211 211 208
345 345 339 336 335 334 333 329 321 317 317 316 319 324 330 332 326 324 327 325 316 297 279 269 280 241 242 245 256 245 233 234 230 222 215 211 207 207 206 209 212 208 204
347 344 342 343 342 340 337 335 335 328 325 325 328 331 332 321 318 315 313 315 313 294 273 252 253 246 240 257 244 232 231 226 219 215 210 208 207 206 210 213 211 205 205
346 348 349 349 347 346 345 346 346 342 341 342 345 348 350 351 349 344 338 341 355 28 325 231 218 238 247 242 232 223 221 217 213 211 208 206 206 208 209 207 203 202 199
352 355 355 354 352 354 357 0 2 1 0 1 3 5 7 8 7 6 6 3 3 6 14 342 245 229 226 223 217 223 227 221 219 216 209 205 204 205 205 201 198 191 188
356 360 2 2 3 7 9 11 15 18 19 21 22 23 22 21 19 19 19 19 20 24 30 36 42 48 188 203 213 222 225 227 223 215 214 207 199 196 194 190 184 184 182
357 3 6 8 10 13 16 19 22 25 26 27 30 33 34 36 37 37 36 37 40 46 55 62 66 67 73 82 112 162 179 194 204 204 200 196 186 181 181 180 178 175 176
352 0 6 10 13 15 16 18 21 23 25 28 28 30 33 37 39 40 42 45 49 54 59 62 65 69 77 82 85 95 107 123 145 159 165 170 170 168 169 170 171 172 173